FALCON 9 DEB (53298 NORAD) Tracking and Keplerian Element Data

This shows tracking and keplerian element data for the satellite.

Feedback or suggestion? Click here.




ElementValue
Catalog53298
NameFALCON 9 DEB
Epoch Orbit341
Epoch Day226.67575576
Epoch Year2022
RAAN293.9991
Inclination53.2159
Eccentricity0.0006407
Argument of Perigee99.0039
Mean Anonmoly261.1738
Mean Motion16.44841498
Decay Rate0.08652741
L11 53298U 22086BJ 22226.67575576 .08652741 12464-4 25538-3 0 9997
L22 53298 53.2159 293.9991 0006407 99.0039 261.1738 16.44841498 3418

Live tracking and technical data element details for FALCON 9 DEB (NORAD 53298). FALCON 9 DEB can be tracked NOW for your location showing map with azimuth and elevation plus other details from your city location.

Track the satellite on the map from your city or location and see movement details for azimuth, elevation, latitude, longitude, range, height, and movement on the map or in text.







IsCatalogInMostPopularTable: catalog: 53298, numindb: 2
Update: records affected: 1



GetName: 53298 FALCON 9 DEB

Hit Count: updated at: Thu, 29 Sep 2022 11:32:26 GMT